Orbital Elements at Epoch 2459200.5 (2020-Dec-17.0) TDB
Reference: JPL 34 (heliocentric ecliptic J2000)
Element | Value | Uncertainty (1-sigma) | Units |
e | .1532236134207005 | 2.7274e-08 | |
a | 2.646260524427793 | 1.0481e-08 | au |
q | 2.240790924822409 | 7.3222e-08 | au |
i | 4.388519221662544 | 3.6455e-06 | deg |
node | 149.415365357172 | 3.985e-05 | deg |
peri | 289.1502470833415 | 4.2052e-05 | deg |
M | 278.6533298004719 | 1.4851e-05 | deg |
tp | 2459555.791325265438 (2021-Dec-07.29132527) | 6.5948e-05 | TDB |
period | 1572.343118431658 4.30 | 9.3416e-06 2.558e-08 | d yr |
n | .2289576592920023 | 1.3603e-09 | deg/d |
Q | 3.051730124033178 | 1.2087e-08 | au |
|
| | Orbit Determination Parameters
Additional Information
|